AirNav   Air Wisconsin pilot careers
 
 1117 users online  

M90 William Robert Johnston Municipal Airport
Mendota, California, USA

GOING TO MENDOTA?


FAA INFORMATION EFFECTIVE 18 JULY 2019

Location

FAA Identifier: M90
Lat/Long: 36-45-31.0000N / 120-22-17.0000W
36-45.516667N / 120-22.283333W
36.7586111 / -120.3713889
(estimated)
Elevation: 162 ft. / 49 m (estimated)
Variation: 15E (1985)
Time zone: UTC -7 (UTC -8 during Standard Time)
Zip code: 93640

Airport Operations

Airport use: Open to the public
Activation date: 08/1957
Control tower: no
ARTCC: OAKLAND CENTER
FSS: RANCHO MURIETA FLIGHT SERVICE STATION
NOTAMs facility: RIU (NOTAM-D service available)
Attendance: UNATNDD
Wind indicator: yes
Segmented circle: yes

Airport Communications

CTAF: 122.9
WX ASOS at MAE (18 nm NE): 134.725 (559-674-1781)

Nearby radio navigation aids

VOR radial/distance  VOR name  Freq  Var
PXNr066/19.8PANOCHE VORTAC112.6016E
HYPr162/27.7EL NIDO VOR/DME114.2015E
CZQr239/27.8CLOVIS VORTAC112.9015E
ROMr005/(39.7)PRIEST VOR110.0016E

Airport Services

Parking: tiedowns

Runway Information

Runway 15/33

Dimensions: 3499 x 50 ft. / 1066 x 15 m
Surface: asphalt, in fair condition
Weight bearing capacity: 
Single wheel: 12.5
RUNWAY 15  RUNWAY 33
Latitude: 36-45.798333N36-45.251500N
Longitude: 120-22.404667W120-22.177167W
Traffic pattern: leftright
Displaced threshold: no777 ft.
Markings: basic, in fair conditionbasic, in fair condition
Runway end identifier lights: nono
Obstructions: none17 ft. bldg, 423 ft. from runway, 190 ft. left of centerline, 13:1 slope to clear
APCH RATIO TO DSPLCD THR 50:1.

Airport Ownership and Management from official FAA records

Ownership: Publicly-owned
Owner: CITY OF MENDOTA
643 QUINCE ST
MENDOTA, CA 93640-2334
Phone 559-655-4298
Manager: CRISTIAN GONZALES
643 QUINCE ST
MENDOTA, CA 93640-2334
Phone (559) 655-4298
CITY MANAGER X 109.

Airport Operational Statistics

Aircraft operations: avg 77/week *
50% transient general aviation
50% local general aviation
* for 12-month period ending 12 April 2019

Additional Remarks

ARPT CLSD NIGHTS.
FOR CD CTC NORCAL APCH AT 916-361-0516.
PARL TWY ROUGH/UNEVEN SFC; EXTSV ASPH RPR AND PATCHING.

Instrument Procedures

There are no published instrument procedures at M90.

Some nearby airports with instrument procedures:

F34 - Firebaugh Airport (8 nm NW)
KMAE - Madera Municipal Airport (18 nm NE)
KFCH - Fresno Chandler Executive Airport (27 nm E)
KLSN - Los Banos Municipal Airport (30 nm NW)
KFAT - Fresno Yosemite International Airport (31 nm E)
 
Loc | Ops | Rwys | IFR | FBO | Links
Com | Nav | Svcs | Stats | Notes
Area around M90 (William Robert Johnston Municipal Airport)
 
Road maps at: MapQuest Bing Google
 
Aerial photo
WARNING: Photo may not be current or correct
Aerial photo of M90 (William Robert Johnston Municipal Airport)
Do you have a better or more recent aerial photo of William Robert Johnston Municipal Airport that you would like to share? If so, please send us your photo.

 
Sectional chart

 
Airport distance calculator
Flying to William Robert Johnston Municipal Airport? Find the distance to fly.

From to M90

Sunrise and sunset
Times for 21-Jul-2019
 Local
(UTC-7)
 Zulu
(UTC)
Morning civil twilight05:3012:30
Sunrise06:0013:00
Sunset20:1603:16
Evening civil twilight20:4603:46

Current date and time
Zulu (UTC)  21-Jul-2019 21:24:00
Local (UTC-7)  21-Jul-2019 14:24:00
 
METAR
KMAE 
18nm NE 
212053Z AUTO 25005KT 10SM CLR 33/12 A2988 RMK AO2 SLP116 T03330122 58006
KFCH 
27nm E 
212055Z AUTO VRB06KT 10SM CLR 33/12 A2989 RMK A01
KFAT 
32nm E 
212053Z 25004KT 10SM FEW085 FEW150 FEW200 34/12 A2988 RMK AO2 SLP113 T03440117 58008
KMCE 
32nm N 
212053Z AUTO VRB05KT 10SM CLR 33/12 A2987 RMK AO2 SLP113 T03280122 58008
KNLC 
33nm SE 
212056Z 03005KT 10SM FEW250 35/14 A2987 RMK AO2 SLP113 RH/29 T03500139 58012
TAF
KFAT 
32nm E 
211720Z 2118/2218 30007KT P6SM SKC
KMCE 
32nm N 
211720Z 2118/2218 31006KT P6SM SKC
KNLC 
33nm SE 
2115/2215 30008KT 9999 SKC QNH2974INS FM220000 35008KT 9999 SKC QNH2973INS FM220600 32008KT 9999 SKC QNH2980INS AUTOMATED SENSOR METWATCH 2115 TIL 2120 T38/2122Z T16/2213Z FS30146
KMER 
39nm N 
211720Z 2118/2218 32006KT P6SM SKC
NOTAMs
Click for the latest NOTAMs
NOTAMs are issued by the DoD/FAA and will open in a separate window not controlled by AirNav.

 

 
 

Would you like to see your business listed on this page?

 If your business provides an interesting product or service to pilots, flight crews, aircraft, or users of the William Robert Johnston Municipal Airport, you should consider listing it here.  To start the listing process, click on the button below
 
Add a business
 

Other Pages about William Robert Johnston Municipal Airport

Update a link
 
Copyright © AirNav, LLC. All rights reserved. Privacy Policy  Contact